{"data":{"norad_id":82250,"epoch":"2026-05-23T05:46:31.391904Z","epoch_age_seconds":220902,"freshness":"STALE","line1":"1 82250U          26143.24064111  .00002166  00000+0  11129-2 0  9992","line2":"2 82250  98.9054  53.2776 0072195  91.9503  58.7721 14.15023128639460","mean_motion":14.15023128,"eccentricity":0.0072195,"inclination_deg":98.9054,"raan_deg":53.2776,"arg_perigee_deg":91.9503,"mean_anomaly_deg":58.7721,"bstar":0.0011129,"rev_number":63946,"period_min":101.76512111398,"perigee_km":790.10602361514,"apogee_km":894.36095309651,"semimajor_km":7220.3704883558,"source":"CELESTRAK","updated_at":"2026-05-25T13:38:11.186137Z"}}